COSMOS 2363 (GLONASS)

Satellite information

Favourite Embed

Satellite Type and Status

PAYLOADIN ORBIT

Key statistics

Satellite COSMOS 2363 (GLONASS) at a glance.

Uptime

9846

Days in orbit

Revolutions

≈ 2.1

Per day

Orbit

MEO

Medium Earth Orbit

Inclination

64.2

Latest

Satellite identification and parameters

Extended collection of information and parameters for COSMOS 2363 (GLONASS).

Object identification

Identified? True

Debris? False

Object name: COSMOS 2363 (GLONASS)

International designator: 1998-077B

Object number (NORAD): 25594

Object ID (CCSDS): 25594

Country: COMMONWEALTH OF INDEPENDENT STATES (CIS)

Current information (Y/N): Y

RCS size: LARGE

Orbital parameters

Period: 675.728 minutes

Inclination: 64.203 deg

SMA: 25507.899 km

Apoapsis: 19196.668 km

Periapsis: 19062.86 km

RAAN: 66.6039 deg

Eccentricy: 0.00262287

Argument of periapsis: 44.1215 deg

Mean anomaly: 320.4267 deg

Mean motion: 2.1310357 rev/day

Mean motion (dot): -0.00000066 rev/day2

B* drag term: 0.0 1/REarth

Two-line elements (TLE)

Creation date: Dec. 14, 2025, 3:07 a.m.

Reference frame: TEME

Reference center: EARTH

Epoch: Dec. 13, 2025, 9:03 a.m. UTC

TLE line 0: 0 COSMOS 2363 (GLONASS)

TLE line 1: 1 25594U 98077B 25347.37730740 -.00000066 00000-0 00000-0 0 9991

TLE line 2: 2 25594 64.2030 66.6039 0026229 44.1215 320.4267 2.13103570209726

Live tracking on map

Real-time ground track for satellite COSMOS 2363 (GLONASS).

In-orbit conjunctions

A list of the most updated potential collisions computed for object COSMOS 2363 (GLONASS).

Target Orbit TCA Probability of collision Miss distance Type
SL-12 R/B(2) MEO 2025-02-21 20:38:32 TBA 4031.0 (m) ROCKET BODY

Associated space launch

GLONASS navigation satellites

COSMOS 2363 (GLONASS) was lifted into orbit during the mission ‘Proton | Uragan 72 to 74’, on board a Proton space rocket.

The launch took place on Dec. 30, 1998, 6:35 p.m. from 200/39 (200L).

For more information about the launch, click the button.

Launch to space Proton | Uragan 72 to 74
Proton | Uragan 72 to 74

Agency: N/A

Status: Launch Successful

Launch date: Dec. 30, 1998, 6:35 p.m. UTC

Rocket: Proton

Launch pad: 200/39 (200L)

Location: Baikonur Cosmodrome, Republic of Kazakhstan

...

Latest news about this satellite

There are no fresh news available about this satellite. Check back as we update our databases every day.


Newsletter sign-up

Weekly statistics, charts and insights to help you stay on top of the space industry.